CDT,Max TemperatureF,Mean TemperatureF,Min TemperatureF,Max Dew PointF,MeanDew PointF,Min DewpointF,Max Humidity, Mean Humidity, Min Humidity, Max Sea Level PressureIn, Mean Sea Level PressureIn, Min Sea Level PressureIn, Max VisibilityMiles, Mean VisibilityMiles, Min VisibilityMiles, Max Wind SpeedMPH, Mean Wind SpeedMPH, Max Gust SpeedMPH,PrecipitationIn, CloudCover, Events, WindDirDegrees
2013-5-1,35,30,24,27,22,19,93,73,60,30.58,30.36,30.03,10,10,10,22,14,28,0.00,6,,298
2013-5-2,33,28,23,25,22,19,93,78,60,30.67,30.60,30.52,10,10,10,14,7,18,0.00,5,,341
2013-5-3,50,36,23,28,24,18,93,65,43,30.52,30.37,30.26,10,10,10,13,5,20,0.00,0,,39
2013-5-4,42,36,30,37,32,25,93,83,60,30.28,30.26,30.24,10,9,3,15,6,18,0.04,8,Rain-Snow,40
2013-5-5,51,42,33,48,39,34,100,95,87,30.26,30.20,30.13,10,9,5,9,4,,0.13,7,Rain,36
2013-5-6,68,52,35,59,44,34,100,80,49,30.14,30.10,30.04,10,9,5,6,1,,0.00,4,,196
2013-5-7,73,57,41,52,45,37,93,63,31,30.04,29.99,29.92,10,10,4,18,5,23,0.00,1,,176
2013-5-8,77,62,46,50,45,37,82,58,34,30.11,30.01,29.93,10,10,10,16,3,23,0.00,2,,333
2013-5-9,62,50,37,37,30,23,75,51,25,30.19,30.15,30.10,10,10,10,21,11,29,0.00,0,,36
2013-5-10,62,48,33,39,29,21,81,51,30,30.19,30.06,29.87,10,10,10,28,10,36,0.00,1,Rain,195
2013-5-11,48,39,28,32,23,16,87,58,27,30.24,30.19,30.10,10,10,7,28,16,36,0.00,4,Rain,327
2013-5-12,57,38,19,25,18,10,86,45,21,30.25,30.17,30.04,10,10,5,12,2,18,0.00,0,,310
2013-5-13,84,63,42,43,26,16,39,29,17,30.04,29.78,29.57,10,10,7,31,13,41,0.00,1,,159
2013-5-14,80,63,46,55,42,27,88,50,21,29.77,29.60,29.49,10,10,10,34,11,44,0.08,1,Rain,242
2013-5-15,80,60,39,45,37,27,93,48,18,29.88,29.82,29.77,10,10,7,24,6,29,0.00,0,,269
2013-5-16,77,60,44,48,35,30,77,42,19,29.98,29.94,29.89,10,10,10,13,5,18,0.01,2,Rain,67
2013-5-17,75,64,53,48,41,30,67,47,33,29.99,29.95,29.90,10,10,10,15,10,22,0.00,7,Rain,104
2013-5-18,73,63,53,66,53,43,94,79,52,29.92,29.86,29.82,10,8,3,12,7,21,0.46,6,Rain-Thunderstorm,104
2013-5-19,69,61,53,64,57,54,100,94,78,29.82,29.71,29.65,10,6,1,18,11,26,0.63,8,Rain-Thunderstorm,66
2013-5-20,53,52,48,54,52,48,100,97,94,29.65,29.57,29.52,10,8,2,17,12,26,0.86,8,Rain,67
2013-5-21,48,45,42,48,44,43,100,95,87,29.87,29.76,29.65,10,8,2,18,14,29,0.33,8,Rain,47
2013-5-22,69,56,44,48,44,37,93,68,31,30.13,29.96,29.86,10,10,10,21,14,30,0.00,3,,41
2013-5-23,66,54,41,39,34,28,81,53,28,30.34,30.28,30.14,10,10,10,12,7,17,0.00,0,,45
2013-5-24,68,54,39,46,35,27,82,53,21,30.31,30.26,30.19,10,10,7,18,5,24,0.03,2,Rain-Thunderstorm,143
2013-5-25,71,60,48,52,47,45,100,71,38,30.21,30.17,30.13,10,10,7,16,12,28,0.01,5,,130
2013-5-26,69,58,48,48,42,37,87,59,31,30.20,30.13,30.05,10,10,10,18,8,25,0.00,5,Rain,128
2013-5-27,69,61,53,52,47,43,82,64,49,30.05,29.93,29.83,10,10,10,16,7,20,0.00,7,,127
2013-5-28,69,62,55,54,52,50,88,75,56,29.83,29.72,29.66,10,10,10,18,9,22,0.00,6,,157
2013-5-29,75,64,53,61,55,52,100,79,44,29.73,29.69,29.62,10,9,5,15,9,21,0.13,2,Rain-Thunderstorm,168
2013-5-30,78,68,57,68,61,55,100,84,44,29.66,29.52,29.46,10,9,5,20,7,30,0.13,7,Rain-Thunderstorm,117
2013-5-31,66,62,57,61,57,54,100,86,72,29.60,29.47,29.39,10,10,5,16,5,25,0.07,6,Rain,135